When you browse on this site, cookies collect data to enhance your experience and personalize the content and advertising you see.
Visit our Privacy Policy to learn more. By continuing to use the site, you agree to this use of cookies and data.
  • In Romania
  • List of Countries
  • For 7 days
  • Water Temperature
  • Weather Map
  • Weather Widgets
  • user-avatar
    Login

    Hourly Weather Goiania

    Today, 20 September, Friday

    Time Temperature Precipitation Wind Pressure Humidity
    00:00 +25°C° 0 mm 1 mps 697 mmHg 24%
    01:00 +25°C° 0 mm 1 mps 697 mmHg 25%
    02:00 +25°C° 0 mm 1 mps 697 mmHg 26%
    03:00 +24°C° 0 mm 1 mps 697 mmHg 26%
    04:00 +24°C° 0 mm 1 mps 697 mmHg 27%
    05:00 +24°C° 0 mm 1 mps 698 mmHg 28%
    06:00 +24°C° 0 mm 1 mps 698 mmHg 29%
    07:00 +28°C° 0 mm 1 mps 699 mmHg 24%
    08:00 +33°C° 0 mm 1 mps 700 mmHg 20%
    09:00 +37°C° 0 mm 1 mps 701 mmHg 16%
    10:00 +39°C° 0 mm 1 mps 700 mmHg 14%
    11:00 +40°C° 0 mm 1 mps 700 mmHg 13%
    12:00 +42°C° 0 mm 2 mps 700 mmHg 11%
    13:00 +42°C° 0 mm 2 mps 699 mmHg 11%
    14:00 +42°C° 0 mm 2 mps 698 mmHg 11%
    15:00 +42°C° 0 mm 2 mps 697 mmHg 11%
    16:00 +40°C° 0 mm 2 mps 697 mmHg 13%
    17:00 +37°C° 0 mm 1 mps 697 mmHg 15%
    18:00 +35°C° 0 mm 1 mps 697 mmHg 16%
    19:00 +34°C° 0 mm 1 mps 697 mmHg 18%
    20:00 +33°C° 0 mm 1 mps 698 mmHg 20%
    21:00 +29°C° 0 mm 0 mps 698 mmHg 21%
    22:00 +30°C° 0 mm 1 mps 699 mmHg 24%
    23:00 +29°C° 0 mm 1 mps 699 mmHg 27%

    Tomorrow, 21 September, Saturday

    Time Temperature Precipitation Wind Pressure Humidity
    00:00 +28°C° 0 mm 1 mps 699 mmHg 30%
    01:00 +28°C° 0 mm 1 mps 698 mmHg 32%
    02:00 +27°C° 0 mm 1 mps 698 mmHg 34%
    03:00 +27°C° 0 mm 1 mps 698 mmHg 37%
    04:00 +24°C° 0 mm 0 mps 698 mmHg 39%
    05:00 +24°C° 0 mm 0 mps 698 mmHg 42%
    06:00 +23°C° 0 mm 0 mps 698 mmHg 45%
    07:00 +28°C° 0 mm 1 mps 698 mmHg 40%
    08:00 +31°C° 0 mm 2 mps 699 mmHg 35%
    09:00 +34°C° 0 mm 3 mps 700 mmHg 30%
    10:00 +36°C° 0 mm 3 mps 699 mmHg 26%
    11:00 +38°C° 0 mm 3 mps 699 mmHg 22%
    12:00 +40°C° 0 mm 3 mps 699 mmHg 18%
    13:00 +42°C° 0 mm 3 mps 699 mmHg 16%
    14:00 +41°C° 0 mm 2 mps 698 mmHg 14%
    15:00 +42°C° 0 mm 2 mps 697 mmHg 13%
    16:00 +40°C° 0 mm 2 mps 697 mmHg 14%
    17:00 +38°C° 0 mm 2 mps 697 mmHg 16%
    18:00 +37°C° 0 mm 2 mps 697 mmHg 17%
    19:00 +35°C° 0 mm 2 mps 697 mmHg 20%
    20:00 +32°C° 0 mm 2 mps 697 mmHg 22%
    21:00 +31°C° 0 mm 2 mps 698 mmHg 25%
    22:00 +30°C° 0 mm 2 mps 698 mmHg 26%
    23:00 +30°C° 0 mm 1 mps 698 mmHg 26%

    Day after tomorrow, 22 September, Sunday

    Time Temperature Precipitation Wind Pressure Humidity
    00:00 +30°C° 0 mm 1 mps 698 mmHg 27%
    01:00 +29°C° 0 mm 2 mps 697 mmHg 27%
    02:00 +29°C° 0 mm 2 mps 697 mmHg 27%
    03:00 +29°C° 0 mm 2 mps 697 mmHg 27%
    04:00 +28°C° 0 mm 2 mps 697 mmHg 29%
    05:00 +27°C° 0 mm 3 mps 698 mmHg 31%
    06:00 +26°C° 0 mm 3 mps 698 mmHg 32%
    07:00 +28°C° 0 mm 3 mps 699 mmHg 29%
    08:00 +31°C° 0 mm 3 mps 699 mmHg 25%
    09:00 +34°C° 0 mm 4 mps 700 mmHg 21%
    10:00 +37°C° 0 mm 3 mps 700 mmHg 19%
    11:00 +39°C° 0 mm 3 mps 700 mmHg 17%
    12:00 +41°C° 0 mm 2 mps 700 mmHg 15%
    13:00 +41°C° 0 mm 2 mps 699 mmHg 15%
    14:00 +42°C° 0 mm 3 mps 699 mmHg 15%
    15:00 +42°C° 0 mm 3 mps 698 mmHg 15%
    16:00 +39°C° 0 mm 3 mps 698 mmHg 16%
    17:00 +38°C° 0 mm 2 mps 698 mmHg 18%
    18:00 +36°C° 0 mm 2 mps 698 mmHg 20%
    19:00 +35°C° 0 mm 3 mps 698 mmHg 21%
    20:00 +35°C° 0 mm 3 mps 698 mmHg 23%
    21:00 +34°C° 0 mm 4 mps 699 mmHg 24%
    22:00 +33°C° 0 mm 3 mps 699 mmHg 27%
    23:00 +31°C° 0 mm 3 mps 699 mmHg 30%

    23 September, Monday

    Time Temperature Precipitation Wind Pressure Humidity
    00:00 +29°C° 0 mm 3 mps 699 mmHg 33%
    01:00 +28°C° 0 mm 3 mps 698 mmHg 35%
    02:00 +27°C° 0 mm 3 mps 698 mmHg 36%
    03:00 +26°C° 0 mm 3 mps 697 mmHg 38%
    04:00 +26°C° 0 mm 3 mps 698 mmHg 35%
    05:00 +25°C° 0 mm 4 mps 698 mmHg 32%
    06:00 +25°C° 0 mm 4 mps 699 mmHg 29%
    07:00 +26°C° 0 mm 5 mps 700 mmHg 30%
    08:00 +28°C° 0 mm 6 mps 700 mmHg 31%
    09:00 +30°C° 0 mm 7 mps 701 mmHg 32%
    10:00 +33°C° 0 mm 7 mps 701 mmHg 29%
    11:00 +35°C° 0 mm 6 mps 701 mmHg 26%
    12:00 +38°C° 0 mm 6 mps 701 mmHg 23%
    13:00 +37°C° 0 mm 5 mps 701 mmHg 23%
    14:00 +39°C° 0 mm 5 mps 700 mmHg 22%
    15:00 +40°C° 0 mm 4 mps 699 mmHg 22%
    16:00 +37°C° 0 mm 4 mps 699 mmHg 24%
    17:00 +36°C° 0 mm 3 mps 699 mmHg 26%
    18:00 +34°C° 0 mm 3 mps 699 mmHg 28%
    19:00 +33°C° 0 mm 3 mps 699 mmHg 31%
    20:00 +30°C° 0 mm 3 mps 699 mmHg 34%
    21:00 +28°C° 0 mm 3 mps 700 mmHg 37%
    22:00 +28°C° 0 mm 3 mps 700 mmHg 39%
    23:00 +27°C° 0 mm 3 mps 700 mmHg 40%

    24 September, Tuesday

    Time Temperature Precipitation Wind Pressure Humidity
    00:00 +26°C° 0 mm 3 mps 700 mmHg 42%
    01:00 +26°C° 0 mm 3 mps 699 mmHg 45%
    02:00 +25°C° 0 mm 4 mps 699 mmHg 47%
    03:00 +25°C° 0 mm 5 mps 699 mmHg 49%
    04:00 +23°C° 0 mm 5 mps 699 mmHg 50%
    05:00 +23°C° 0 mm 5 mps 699 mmHg 51%
    06:00 +22°C° 0 mm 6 mps 700 mmHg 52%
    07:00 +24°C° 0 mm 6 mps 700 mmHg 48%
    08:00 +27°C° 0 mm 6 mps 701 mmHg 43%
    09:00 +29°C° 0 mm 6 mps 701 mmHg 39%
    10:00 +32°C° 0 mm 5 mps 701 mmHg 33%
    11:00 +35°C° 0 mm 5 mps 701 mmHg 28%
    12:00 +38°C° 0 mm 4 mps 701 mmHg 23%
    13:00 +39°C° 0 mm 3 mps 700 mmHg 21%
    14:00 +39°C° 0 mm 2 mps 699 mmHg 19%
    15:00 +40°C° 0 mm 1 mps 698 mmHg 17%
    16:00 +37°C° 0 mm 1 mps 698 mmHg 19%
    17:00 +35°C° 0 mm 1 mps 697 mmHg 21%
    18:00 +34°C° 0 mm 1 mps 697 mmHg 23%
    19:00 +32°C° 0 mm 1 mps 697 mmHg 25%
    20:00 +31°C° 0 mm 1 mps 697 mmHg 27%
    21:00 +30°C° 0 mm 1 mps 698 mmHg 28%
    22:00 +30°C° 0 mm 1 mps 697 mmHg 29%
    23:00 +29°C° 0 mm 1 mps 697 mmHg 30%

    25 September, Wednesday

    Time Temperature Precipitation Wind Pressure Humidity
    00:00 +29°C° 0 mm 1 mps 697 mmHg 30%
    01:00 +28°C° 0 mm 1 mps 697 mmHg 31%
    02:00 +28°C° 0 mm 1 mps 696 mmHg 31%
    03:00 +28°C° 0 mm 1 mps 696 mmHg 32%
    04:00 +27°C° 0 mm 1 mps 696 mmHg 33%
    05:00 +27°C° 0 mm 1 mps 696 mmHg 33%
    06:00 +26°C° 0 mm 1 mps 697 mmHg 34%
    07:00 +29°C° 0 mm 1 mps 697 mmHg 30%
    08:00 +31°C° 0 mm 2 mps 698 mmHg 26%
    09:00 +34°C° 0 mm 3 mps 699 mmHg 23%
    10:00 +36°C° 0 mm 3 mps 699 mmHg 20%
    11:00 +38°C° 0 mm 4 mps 699 mmHg 18%
    12:00 +41°C° 0 mm 4 mps 699 mmHg 16%
    13:00 +40°C° 0 mm 4 mps 698 mmHg 17%
    14:00 +40°C° 0 mm 4 mps 697 mmHg 18%
    15:00 +38°C° 0 mm 3 mps 696 mmHg 19%
    16:00 +36°C° 0.1 mm 3 mps 696 mmHg 22%
    17:00 +35°C° 0.1 mm 2 mps 696 mmHg 26%
    18:00 +32°C° 0.1 mm 1 mps 696 mmHg 29%
    19:00 +29°C° 1.2 mm 3 mps 696 mmHg 44%
    20:00 +27°C° 1.2 mm 6 mps 697 mmHg 60%
    21:00 +23°C° 1.2 mm 8 mps 697 mmHg 75%
    22:00 +23°C° 0.6 mm 7 mps 698 mmHg 75%
    23:00 +22°C° 0.6 mm 5 mps 698 mmHg 75%
    Show more